Volver al catálogo

STARLINK-38083

ActivoComunicacionesSSO
NORAD 100385·PAYLOAD·🇺🇸 United States

Lanzado Aug 19, 2026 desde Vandenberg Space Force Base

Loading…

Próximos Pases (próximas 24 horas)

TLE

ActualizadoSource: Space-Track

Época: Sep 14, 2026, 12:50 UTC

1 A0385U 26190Q   26257.53537128  .00180149  00000-0  11908-2 0  9994
2 A0385  97.2850 111.5503 0004304 172.1616 187.9717 15.75036228  5431

Sigue STARLINK-38083 en tiempo real con AllMySat

Download on the App Store